Weather History for Varna, Bulgaria

Change the Weather History Date:

Tuesday, August 20, 2013

  Actual Average Record
Temperature  
Mean Temperature 75 °F -  
Max Temperature 84 °F 77 °F 98 °F (2006)
Min Temperature 66 °F 60 °F 55 °F (1997)
Cooling Degree Days 10    
Growing Degree Days 25 (Base 50)    
Moisture  
Dew Point 61 °F    
Average Humidity 65    
Maximum Humidity 94    
Minimum Humidity 30    
Precipitation  
Precipitation 0.00 in 0.04 in - ()
Sea Level Pressure  
Sea Level Pressure 30.00 in    
Wind  
Wind Speed 6 mph ()    
Max Wind Speed 18 mph    
Max Gust Speed 20 mph    
Visibility 8.6 miles    
Events      
Averages and records for this station are not official NWS values.
T = Trace of Precipitation, MM = Missing Value Source: Averaged Metar Reports

Daily Weather History Graph

Daily Weather History Graph

Search for Another Location

Airport:

Trip Planner

Search our weather history database for the weather conditions in past years. The results will help you decide how hot, cold, wet, or windy it might be!

Date:

Astronomy

Aug. 20, 2013 Rise Set
Actual Time 6:19 AM EEST 8:03 PM EEST
Civil Twilight 5:48 AM EEST 8:33 PM EEST
Nautical Twilight 5:12 AM EEST 9:10 PM EEST
Astronomical Twilight 4:32 AM EEST 9:49 PM EEST
Moon 7:20 PM EEST (8/20) 5:26 AM EEST (8/20)
Length of Visible Light 14h 44m
Length of Day
13h 44m
Waxing Gibbous, 99% of the Moon is Illuminated
Aug 20
Waxing Gibbous
Aug 21
Full
Aug 28
Last Quarter
Sep 5
New
Sep 12
First Quarter

Hourly Weather History & Observations

Time (EEST) Temp. Heat Index Dew Point Humidity Pressure Visibility Wind Dir Wind Speed Gust Speed Precip Events Conditions
12:00 AM 74 °F - 67 °F 74% 30.00 in 12 mi ENE 4.5 mph - -  
12:00 AM 68.0 °F - 62.6 °F 83% 30.01 in - North 6.7 mph - N/A   Clear
12:30 AM 68.0 °F - 62.6 °F 83% 30.01 in - North 4.5 mph - N/A   Clear
1:00 AM 68.0 °F - 62.6 °F 83% 30.01 in - North 4.5 mph - N/A   Clear
1:30 AM 66.2 °F - 60.8 °F 83% 30.01 in - North 4.5 mph - N/A   Clear
2:00 AM 64.4 °F - 59.0 °F 83% 30.01 in - NNE 4.5 mph - N/A   Clear
2:30 AM 64.4 °F - 60.8 °F 88% 30.01 in - Variable 2.2 mph - N/A   Clear
3:00 AM 69 °F - 63 °F 74% 30.00 in 12 mi NW 4.5 mph - -  
3:00 AM 66.2 °F - 59.0 °F 78% 29.98 in - North 2.2 mph - N/A   Clear
3:30 AM 64.4 °F - 59.0 °F 83% 29.98 in - Variable 2.2 mph - N/A   Clear
4:00 AM 64.4 °F - 59.0 °F 83% 29.98 in - Calm Calm - N/A   Clear
4:30 AM 62.6 °F - 57.2 °F 82% 29.98 in - Calm Calm - N/A   Clear
5:00 AM 62.6 °F - 59.0 °F 88% 29.98 in - Calm Calm - N/A   Clear
5:30 AM 62.6 °F - 59.0 °F 88% 29.98 in - West 4.5 mph - N/A   Clear
6:00 AM 60.8 °F - 59.0 °F 94% 29.98 in - Calm Calm - N/A   Clear
6:30 AM 62.6 °F - 60.8 °F 94% 29.98 in - WSW 2.2 mph - N/A   Clear
7:00 AM 60.8 °F - 59.0 °F 94% 29.98 in 5.0 mi West 4.5 mph - N/A   Unknown
7:30 AM 62.6 °F - 59.0 °F 88% 30.01 in 5.0 mi Calm Calm - N/A   Unknown
8:00 AM 68.0 °F - 62.6 °F 83% 30.01 in - Calm Calm - N/A   Clear
8:30 AM 69.8 °F - 62.6 °F 78% 30.01 in - West 2.2 mph - N/A   Clear
9:00 AM 78 °F - 62 °F 48% 30.00 in 12 mi SE 4.5 mph - -   Scattered Clouds
9:00 AM 73.4 °F - 60.8 °F 65% 30.01 in - SW 4.5 mph - N/A   Clear
9:30 AM 78.8 °F - 59.0 °F 51% 30.01 in - Variable 6.7 mph - N/A   Clear
10:00 AM 80.6 °F 80.3 °F 53.6 °F 39% 30.01 in - East 11.2 mph - N/A   Clear
10:30 AM 82.4 °F - 50.0 °F 32% 30.01 in - ENE 8.9 mph 20.1 mph N/A   Clear
11:00 AM 84.2 °F - 50.0 °F 30% 30.01 in - East 13.4 mph - N/A   Clear
11:30 AM 82.4 °F 81.7 °F 55.4 °F 39% 30.01 in - East 13.4 mph - N/A   Clear
12:00 PM 81 °F - 64 °F 47% 30.01 in 12 mi ESE 13.4 mph - -   Scattered Clouds
12:00 PM 84.2 °F 83.8 °F 59.0 °F 42% 30.01 in 6.2 mi East 8.9 mph - N/A   Partly Cloudy
12:30 PM 82.4 °F 84.6 °F 66.2 °F 58% 30.01 in 6.2 mi SE 15.7 mph - N/A   Scattered Clouds
1:00 PM 82.4 °F 83.9 °F 64.4 °F 54% 30.01 in 6.2 mi ESE 17.9 mph - N/A   Partly Cloudy
1:30 PM 84.2 °F 87.3 °F 68.0 °F 58% 30.01 in 6.2 mi ESE 13.4 mph - N/A   Partly Cloudy
2:00 PM 84.2 °F 85.6 °F 64.4 °F 51% 30.01 in 6.2 mi East 15.7 mph - N/A   Partly Cloudy
2:30 PM 84.2 °F 83.0 °F 55.4 °F 37% 30.01 in 6.2 mi ESE 17.9 mph - N/A   Partly Cloudy
3:00 PM 81 °F - 68 °F 57% 30.00 in 12 mi ESE 13.4 mph - -   Scattered Clouds
3:00 PM 84.2 °F 83.0 °F 55.4 °F 37% 30.01 in 6.2 mi ESE 15.7 mph - N/A   Partly Cloudy
3:30 PM 84.2 °F 83.8 °F 59.0 °F 42% 29.98 in - ESE 13.4 mph - N/A   Clear
4:00 PM 84.2 °F 84.4 °F 60.8 °F 45% 29.98 in - ESE 13.4 mph - N/A   Clear
4:30 PM 84.2 °F 84.4 °F 60.8 °F 45% 29.98 in - SE 15.7 mph - N/A   Clear
5:00 PM 84.2 °F 84.4 °F 60.8 °F 45% 29.98 in - SE 13.4 mph - N/A   Clear
5:30 PM 84.2 °F 83.8 °F 59.0 °F 42% 29.98 in - SE 13.4 mph - N/A   Clear
6:00 PM 80 °F - 68 °F 59% 29.99 in 12 mi ESE 11.2 mph - -  
6:00 PM 82.4 °F 83.4 °F 62.6 °F 51% 29.98 in - SE 13.4 mph - N/A   Clear
6:30 PM 80.6 °F 82.7 °F 66.2 °F 61% 29.98 in - SE 11.2 mph - N/A   Clear
7:00 PM 78.8 °F - 66.2 °F 65% 29.98 in - SE 11.2 mph - N/A   Clear
7:30 PM 78.8 °F - 66.2 °F 65% 30.01 in - ESE 11.2 mph - N/A   Clear
8:00 PM 77.0 °F - 62.6 °F 61% 30.01 in - ESE 8.9 mph - N/A   Clear
8:30 PM 73.4 °F - 62.6 °F 69% 30.01 in - East 6.7 mph - N/A   Clear
9:00 PM 76 °F - 64 °F 58% 30.01 in 12 mi ENE 4.5 mph - -  
9:00 PM 73.4 °F - 62.6 °F 69% 30.01 in - ESE 6.7 mph - N/A   Clear
9:30 PM 73.4 °F - 62.6 °F 69% 30.01 in - Calm Calm - N/A   Clear
10:00 PM 71.6 °F - 62.6 °F 73% 30.01 in - Calm Calm - N/A   Clear
10:30 PM 68.0 °F - 59.0 °F 73% 30.01 in - Variable 2.2 mph - N/A   Clear
11:00 PM 68.0 °F - 59.0 °F 73% 30.01 in - North 4.5 mph - N/A   Clear
11:30 PM 66.2 °F - 59.0 °F 78% 30.01 in - North 4.5 mph - N/A   Clear